Sitka, Alaska, United States (99835)
Lat: 57.05N, Lon: 135.33W
Wx Zone: AKZ023
Local Info
Past Weather Observations for Monday, November 17, 2014

NOTE: This archive is for the closest National Weather Service station to Sitka. Information may differ from the station used for current weather conditions.

Click here for Long-term Archive

Time Weather Temperature Dewpoint Humidity Pressure Winds Precip Visibility
23:53
Clear
43°F / 6°C 39°F / 4°C 87% 29.95 in
(1014 mb)
NE 4.6 mph
(NE 7 kph)
- 10SM
22:53
Clear
43°F / 6°C 41°F / 5°C 93% 29.98 in
(1015 mb)
N 5.8 mph
(N 9 kph)
- 10SM
21:53
Clear
45°F / 7°C 41°F / 5°C 87% 29.98 in
(1015 mb)
NW 9.2 mph
(NW 15 kph)
- 10SM
20:53
Partly Cloudy
43°F / 6°C 41°F / 5°C 93% 30.01 in
(1016 mb)
NNW 9.2 mph
(NNW 15 kph)
- 10SM
19:53
Mostly Cloudy
41°F / 5°C 41°F / 5°C 100% 30.04 in
(1017 mb)
NNW 6.9 mph
(NNW 11 kph)
- 10SM
19:07
Mostly Cloudy
Fog And Mist
39°F / 4°C 39°F / 4°C 100% 30.04 in
(1017 mb)
NW 3.5 mph
(NW 6 kph)
- 3SM
19:01
Mostly Cloudy
Fog And Mist
39°F / 4°C 39°F / 4°C 100% 30.06 in
(1018 mb)
Calm - 1 1/4SM
18:53
Mostly Cloudy
Fog And Mist
39°F / 4°C 39°F / 4°C 100% 30.06 in
(1018 mb)
ENE 3.5 mph
(ENE 6 kph)
- 2 1/2SM
18:21
Mostly Cloudy
Fog And Mist
37°F / 3°C 37°F / 3°C 100% 30.06 in
(1018 mb)
N 3.5 mph
(N 6 kph)
- 5SM
17:53
Mostly Cloudy
39°F / 4°C 39°F / 4°C 100% 30.09 in
(1019 mb)
Calm - 9SM
16:53
Mostly Cloudy
43°F / 6°C 41°F / 5°C 93% 30.12 in
(1020 mb)
N 9.2 mph
(N 15 kph)
- 10SM
16:19
Mostly Cloudy
43°F / 6°C 41°F / 5°C 93% 30.12 in
(1020 mb)
Calm - 10SM
15:53
Mostly Cloudy
43°F / 6°C 41°F / 5°C 93% 30.12 in
(1020 mb)
NNW 10.4 mph
(NNW 17 kph)
- 10SM
14:53
Mostly Cloudy
45°F / 7°C 43°F / 6°C 93% 30.18 in
(1022 mb)
N 6.9 mph
(N 11 kph)
- 10SM
13:53
Mostly Cloudy
45°F / 7°C 43°F / 6°C 93% 30.18 in
(1022 mb)
NNW 4.6 mph
(NNW 7 kph)
- 10SM
12:53
Mostly Cloudy
45°F / 7°C 43°F / 6°C 93% 30.21 in
(1023 mb)
NNW 8.1 mph
(NNW 13 kph)
- 10SM
11:53
Mostly Cloudy
45°F / 7°C 43°F / 6°C 93% 30.24 in
(1024 mb)
NW 9.2 mph
(NW 15 kph)
- 10SM
11:37
Overcast
45°F / 7°C 43°F / 6°C 93% 30.24 in
(1024 mb)
NNW 9.2 mph
(NNW 15 kph)
- 10SM
10:53
Overcast
43°F / 6°C 43°F / 6°C 100% 30.27 in
(1025 mb)
NNW 3.5 mph
(NNW 6 kph)
- 10SM
10:00
Overcast
43°F / 6°C 43°F / 6°C 100% 30.27 in
(1025 mb)
Calm - 8SM
09:53
Overcast
Fog And Mist
43°F / 6°C 43°F / 6°C 100% 30.27 in
(1025 mb)
N 3.5 mph
(N 6 kph)
- 5SM
08:53
Overcast
Fog And Mist
43°F / 6°C 43°F / 6°C 100% 30.3 in
(1026 mb)
NNW 8.1 mph
(NNW 13 kph)
- 3SM
07:53
Overcast
Fog And Mist
43°F / 6°C 43°F / 6°C 100% 30.3 in
(1026 mb)
NNW 8.1 mph
(NNW 13 kph)
0.00 in
(0.00 mm)
4SM
07:31
Overcast
Fog And Mist
43°F / 6°C 43°F / 6°C 100% 30.3 in
(1026 mb)
NNW 6.9 mph
(NNW 11 kph)
- 4SM
07:22
Overcast
Fog And Mist
43°F / 6°C 43°F / 6°C 100% 30.3 in
(1026 mb)
NNW 5.8 mph
(NNW 9 kph)
- 5SM
06:53
Overcast
Fog And Mist
43°F / 6°C 43°F / 6°C 100% 30.3 in
(1026 mb)
N 4.6 mph
(N 7 kph)
0.01 in
(0.25 mm)
4SM
06:26
Overcast
Light Rain
41°F / 5°C 41°F / 5°C 100% 30.3 in
(1026 mb)
Calm 0.00 in
(0.00 mm)
4SM
06:00
Overcast
Light Rain
43°F / 6°C 43°F / 6°C 100% 30.3 in
(1026 mb)
Calm 0.00 in
(0.00 mm)
3SM
05:53
Overcast
Light Rain
41°F / 5°C 41°F / 5°C 100% 30.3 in
(1026 mb)
Calm 0.02 in
(0.51 mm)
2 1/2SM
05:51
Overcast
Light Rain
41°F / 5°C 41°F / 5°C 100% 30.3 in
(1026 mb)
Calm 0.02 in
(0.51 mm)
2SM
05:45
Overcast
Light Rain
41°F / 5°C 41°F / 5°C 100% 30.3 in
(1026 mb)
Calm 0.01 in
(0.25 mm)
1 3/4SM
05:38
Overcast
Light Rain
41°F / 5°C 41°F / 5°C 100% 30.3 in
(1026 mb)
Calm 0.01 in
(0.25 mm)
1 3/4SM
05:32
Overcast
Fog And Mist
41°F / 5°C 41°F / 5°C 100% 30.3 in
(1026 mb)
Calm 0.01 in
(0.25 mm)
3SM
05:25
Overcast
Fog And Mist
41°F / 5°C 41°F / 5°C 100% 30.3 in
(1026 mb)
Calm 0.01 in
(0.25 mm)
2 1/2SM
05:11
Overcast
Light Rain
41°F / 5°C 41°F / 5°C 100% 30.3 in
(1026 mb)
Calm 0.01 in
(0.25 mm)
2 1/2SM
04:53
Overcast
Light Rain
43°F / 6°C 43°F / 6°C 100% 30.3 in
(1026 mb)
N 3.5 mph
(N 6 kph)
0.01 in
(0.25 mm)
4SM
04:40
Overcast
Light Rain
43°F / 6°C 43°F / 6°C 100% 30.3 in
(1026 mb)
NNW 5.8 mph
(NNW 9 kph)
0.01 in
(0.25 mm)
4SM
04:22
Overcast
Light Rain
43°F / 6°C 43°F / 6°C 100% 30.3 in
(1026 mb)
NNW 3.5 mph
(NNW 6 kph)
0.00 in
(0.00 mm)
4SM
04:09
Overcast
Light Rain
43°F / 6°C 43°F / 6°C 100% 30.3 in
(1026 mb)
N 4.6 mph
(N 7 kph)
0.00 in
(0.00 mm)
6SM
03:53
Overcast
Light Rain
43°F / 6°C 43°F / 6°C 100% 30.3 in
(1026 mb)
NNW 5.8 mph
(NNW 9 kph)
0.01 in
(0.25 mm)
5SM
03:30
Overcast
Light Rain
43°F / 6°C 43°F / 6°C 100% 30.33 in
(1027 mb)
NNW 5.8 mph
(NNW 9 kph)
0.01 in
(0.25 mm)
6SM
03:22
Overcast
Light Rain
43°F / 6°C 43°F / 6°C 100% 30.33 in
(1027 mb)
NNW 5.8 mph
(NNW 9 kph)
0.01 in
(0.25 mm)
5SM
03:00
Overcast
Light Rain
43°F / 6°C 43°F / 6°C 100% 30.33 in
(1027 mb)
N 3.5 mph
(N 6 kph)
0.00 in
(0.00 mm)
6SM
02:53
Overcast
Light Rain
43°F / 6°C 43°F / 6°C 100% 30.33 in
(1027 mb)
NNW 8.1 mph
(NNW 13 kph)
0.01 in
(0.25 mm)
7SM
02:31
Overcast
Light Rain
43°F / 6°C 43°F / 6°C 100% 30.33 in
(1027 mb)
NNW 6.9 mph
(NNW 11 kph)
0.01 in
(0.25 mm)
4SM
02:03
Overcast
Fog And Mist
43°F / 6°C 43°F / 6°C 100% 30.33 in
(1027 mb)
N 3.5 mph
(N 6 kph)
- 6SM
01:53
Overcast
Fog And Mist
43°F / 6°C 43°F / 6°C 100% 30.33 in
(1027 mb)
N 4.6 mph
(N 7 kph)
0.02 in
(0.51 mm)
6SM
01:11
Overcast
Light Rain
43°F / 6°C 43°F / 6°C 100% 30.33 in
(1027 mb)
NW 5.8 mph
(NW 9 kph)
0.01 in
(0.25 mm)
4SM
00:53
Overcast
Light Rain
43°F / 6°C 43°F / 6°C 100% 30.33 in
(1027 mb)
NW 5.8 mph
(NW 9 kph)
0.01 in
(0.25 mm)
5SM
Time Weather Temperature Dewpoint Humidity Pressure Winds Precip Visibility


Weather for websites

WeatherForYou.com, LLC is not responsible for any damages or problems caused by this service. Current weather conditions are obtained from the closest station including government and personal stations which may have varying degrees of accuracy. Weather forecasts are derived from the NOAA NDFD. Like all things, this site belongs to Jesus Christ... He just trusts me to maintain it. If you have any questions or comments email webmaster@weatherforyou.com

Copyright © 2014, WeatherForYou.com LLC. All rights reserved.